Location: *
(53.4003°S, 165.3236°W)
Time: 02:42:53
(UTC+00:00)

Cosmos 1980 - Pass Details

Date: 11 December 2023
Orbit: 837 x 847 km, 71.0° (Epoch: 24 February)

Event Time Altitude Azimuth Distance (km) Brightness Sun altitude
Rises 13:01:14 0° 213° (SSW) 3,437 7.3 -8.8°
Reaches altitude 10° 13:03:43 10° 215° (SW) 2,495 6.5 -8.6°
Maximum altitude 13:09:24 69° 297° (WNW) 912 3.7 -8.2°
Drops below altitude 10° 13:15:02 10° 18° (NNE) 2,465 5.8 -7.8°
Sets 13:17:28 0° 20° (NNE) 3,392 6.5 -7.6°
